Regional Weather Roundup
Issued by NWS

Home | Current Version | Previous Version | Graphics & Text | Print | Product List | Glossary On
Versions: 1 2 3 4 5 6 7 8 9 10 11 12 13 14 15 16 17 18 19 20 21 22 23 24 25 26 27 28 29 30 31 32 33 34 35 36 37 38 39 40 41 42 43 44 45 46 47 48 49 50
000
ASUS43 KDTX 220310
RWRMI
MICHIGAN HOURLY REGIONAL WEATHER ROUNDUP
NATIONAL WEATHER SERVICE DETROIT/PONTIAC MI
1100 PM EDT MON JUL 21 2014

NOTE: "FAIR" INDICATES FEW OR NO CLOUDS BELOW 12,000 FEET WITH NO
SIGNIFICANT WEATHER AND/OR OBSTRUCTION TO VISIBILITY.

MIZ047>049-052>055-059>063-066>070-074>076-081>083-220400-
SOUTHEAST LOWER MICHIGAN

CITY           SKY/WX    TMP DP  RH WIND       PRES   REMARKS
ADRIAN         CLEAR     72  59  63 SE3       30.13S
ALMA           CLEAR     67  65  91 CALM      30.10S
ANN ARBOR      CLEAR     64  59  83 CALM      30.13R
BAD AXE        CLEAR     70  63  79 S5        30.11S
CARO           CLEAR     69  68  96 CALM      30.10F
DETROIT CITY   CLEAR     74  54  49 S3        30.13R
DETROIT        CLEAR     73  60  63 CALM      30.13S
FLINT          CLEAR     75  61  61 S7        30.12R
GROSSE ILE     CLEAR     72  63  73 CALM      30.11F
HILLSDALE      CLEAR     70  64  81 E5        30.13S
HOWELL         CLEAR     72  58  62 S6        30.12F

CITY           SKY/WX    TMP DP  RH WIND       PRES   REMARKS
JACKSON        CLEAR     72  63  73 SE7       30.12S
LAMBERTVILLE   CLEAR     68  59  73 CALM      30.13S
LANSING        CLEAR     72  63  73 CALM      30.11S
LAPEER         FAIR      71  61  70 S3        30.13S
MASON          CLEAR     66  64  92 SE3       30.12S
MONROE         CLEAR     70  63  78 CALM      30.11S
MT. CLEMENS    CLEAR     67  59  76 S5        30.12R
PONTIAC        CLEAR     73  55  53 S3        30.12S
PORT HOPE        N/A     72  65  78 CALM      30.08S
PORT HURON     CLEAR     64  63  94 CALM      30.13S
TRI CITIES     CLEAR     74  65  73 S7        30.10S
TROY           CLEAR     75  55  49 S3        30.14S
SAGINAW HB     CLEAR     72  64  78 S3        30.09S
$$
MIZ043>046-050>051-056>058-064>065-071>073-077>080-220400-
SOUTHWEST LOWER MICHIGAN

CITY           SKY/WX    TMP DP  RH WIND       PRES   REMARKS
BATTLE CREEK   CLEAR     74  64  71 CALM      30.12R
BENTON HARBOR  CLEAR     68  65  90 CALM      30.08S
BIG RAPIDS     CLEAR     67  66  96 CALM      30.09S
COLDWATER      CLEAR     71  67  89 CALM      30.12R
FREMONT        FAIR      68  62  80 CALM      30.08S
HOLLAND        CLEAR     69  64  84 CALM      30.09S
GRAND RAPIDS   CLEAR     73  66  78 S5        30.10R
IONIA          FAIR      69  64  83 S5        30.09S
KALAMAZOO      CLEAR     73  65  75 SE3       30.11R
LUDINGTON      CLEAR     74  63  66 S6        30.07S
MARSHALL       CLEAR     68  65  89 CALM      30.11S
MOUNT PLEASANT CLEAR     69  66  89 CALM      30.09S
MUSKEGON       CLEAR     72  61  68 SE5       30.08S
SOUTH HAVEN    CLEAR     68  66  94 CALM      30.09R
$$
MIZ016>042-220400-
NORTHERN LOWER MICHIGAN

CITY           SKY/WX    TMP DP  RH WIND       PRES   REMARKS
ALPENA         PTCLDY    75  65  70 S6        30.06S
BEAVER ISLAND  CLEAR     70  59  66 SW8       30.04S
BELLAIRE       CLEAR     69  64  86 CALM      30.05S
CADILLAC       CLEAR     70  63  77 S5        30.09F
CHARLEVOIX     CLEAR     70  64  83 CALM      30.07F
FRANKFORT      CLEAR     74  59  58 CALM      30.05S
GAYLORD        CLEAR     77  63  61 SW6       30.09S
GRAYLING       CLEAR     73  64  73 S3        30.10S
HARBOR SPRINGS CLEAR     68  63  83 CALM      30.05S
HOUGHTON LAKE  CLEAR     71  64  78 S6        30.10S
MANISTEE       CLEAR     70  59  68 CALM      30.07S
OSCODA         CLEAR     70  64  80 SW3       30.08S
PELLSTON       PTCLDY    67  63  87 CALM      30.05S
ROGERS CITY    MOCLDY    69  65  89 CALM      30.06F
TRAVERSE CITY  CLEAR     74  62  66 CALM      30.04S
$$
MIZ007>008-015-220400-
EASTERN UPPER MICHIGAN

CITY           SKY/WX    TMP DP  RH WIND       PRES   REMARKS
KINROSS        CLEAR     70  63  78 S5        30.04S
MACKINAC ISLAN CLEAR     68  60  76 SW3       30.04F
NEWBERRY       CLEAR     67  57  71 SW15G22   30.02F
S. S. MARIE    CLEAR     72  60  66 CALM      30.04R
MUNISING         N/A     74  61  63 S8        29.97R
$$
MIZ004>006-011>014-085-220400-
CENTRAL UPPER MICHIGAN

CITY           SKY/WX    TMP DP  RH WIND       PRES   REMARKS
MANISTIQUE     CLEAR     61  59  94 S5        30.02S
ESCANABA       CLEAR     70  61  73 S13       29.99S
MENOMINEE      MOCLDY    73  63  68 S9        29.99S
SAWYER-GWINN   CLEAR     74  67  80 S12       29.99S
$$
MIZ001>003-009>011-084-220400-
WESTERN UPPER MICHIGAN

CITY           SKY/WX    TMP DP  RH WIND       PRES   REMARKS
IRON MOUNTAIN  CLEAR     75  69  81 S7        29.97S
HOUGHTON       CLEAR     73  68  84 E3        29.90F
COPPER HARBOR    N/A     75  69  81 CALM      29.89S
IRONWOOD       CLEAR     79  70  73 S5        29.87F
$$

ABBREVIATIONS USED IN REMARKS
   TC - TEMPERATURE IN CELSIUS
  WCI - WIND CHILL INDEX
   HX - HEAT INDEX
  VSB - VISIBILITY




USA.gov is the U.S. government's official web portal to all federal, state and local government web resources and services.